User: anonymous   Login
Location: Gerlach
(40.6516°N, 119.3568°W)
Time: 23:01:03
(UTC-08:00)
Language:

ZACube-1 - Orbit

View from above orbital plane
View from above orbital plane
View from above satellite
View from above satellite

Ground track
Ground track

The orbit data is extracted from the following two-line orbital elements,

1 39417U 13066B   24064.11718606  .00007227  00000-0  77806-3 0  9995
2 39417  97.7222  22.6431 0053140 146.0513 214.4123 14.87721763555958
Epoch (UTC): 04 March 2024 02:48:44
Eccentricity: 0.0053140
inclination: 97.7222°
perigee height: 568 km
apogee height: 642 km
right ascension of ascending node: 22.6431°
argument of perigee: 146.0513°
revolutions per day: 14.87721763
mean anomaly at epoch: 214.4123°
orbit number at epoch: 55595

The dashed part of the orbit path shows where the satellite is in the earth's shadow,  

DLR